Weather History for KFOZ - October, 2013

Change the Weather History Date:

Saturday, October 19, 2013

  Actual Average (KGPZ) Record (KGPZ)
Temperature  
Mean Temperature 33 °F -  
Max Temperature 42 °F 51 °F 78 °F (2000)
Min Temperature 24 °F 30 °F 8 °F (1972)
Degree Days  
Heating Degree Days 32    
Moisture  
Dew Point 31 °F    
Average Humidity 86    
Maximum Humidity 100    
Minimum Humidity 61    
Precipitation  
Precipitation 0.00 in - - ()
Sea Level Pressure  
Sea Level Pressure 29.70 in    
Wind  
Wind Speed 1 mph (NW)    
Max Wind Speed 8 mph    
Max Gust Speed -    
Visibility 8 miles    
Events Fog , Rain    
Averages and records for this station are not official NWS values.
T = Trace of Precipitation, MM = Missing Value Source: NWS Daily Summary

Daily Weather History Graph

Daily Weather History Graph

Search for Another Location

Airport or City:

Trip Planner

Search our weather history database for the weather conditions in past years. The results will help you decide how hot, cold, wet, or windy it might be!

Date:

Astronomy

Oct. 19, 2013 Rise Set
Actual Time 7:39 AM CDT 6:18 PM CDT
Civil Twilight 7:08 AM CDT 6:49 PM CDT
Nautical Twilight 6:32 AM CDT 7:25 PM CDT
Astronomical Twilight 5:56 AM CDT 8:01 PM CDT
Moon 6:41 PM CDT (10/19) 8:22 AM CDT (10/19)
Length of Visible Light 11h 41m
Length of Day
10h 38m
Waxing Gibbous, 99% of the Moon is Illuminated
Oct 19
Waxing Gibbous
Oct 26
Last Quarter
Nov 3
New
Nov 9
First Quarter
Nov 17
Full

Hourly Weather History & Observations

Time (CDT) Temp. Windchill Dew Point Humidity Pressure Visibility Wind Dir Wind Speed Gust Speed Precip Events Conditions
12:13 AM 32.0 °F - 28.4 °F 87% 29.74 in 10.0 mi Calm Calm - N/A   Clear
12:33 AM 30.2 °F - 28.4 °F 93% 29.73 in 10.0 mi Calm Calm - N/A   Clear
12:53 AM 32.0 °F - 28.4 °F 87% 29.72 in 10.0 mi Calm Calm - N/A   Mostly Cloudy
1:13 AM 33.8 °F 29.6 °F 30.2 °F 87% 29.72 in 10.0 mi WSW 4.6 mph - N/A   Overcast
1:33 AM 35.6 °F - 33.8 °F 93% 29.71 in 10.0 mi Calm Calm - N/A   Mostly Cloudy
1:53 AM 35.6 °F - 32.0 °F 87% 29.71 in 10.0 mi Calm Calm - N/A   Scattered Clouds
2:13 AM 35.6 °F 32.8 °F 32.0 °F 87% 29.71 in 10.0 mi West 3.5 mph - N/A Rain Light Rain
2:33 AM 35.6 °F - 32.0 °F 87% 29.70 in 10.0 mi Calm Calm - N/A Rain Light Rain
2:53 AM 35.6 °F - 33.8 °F 93% 29.70 in 10.0 mi Calm Calm - N/A   Mostly Cloudy
3:13 AM 35.6 °F - 33.8 °F 93% 29.69 in 7.0 mi Calm Calm - N/A Rain Light Rain
3:33 AM 35.6 °F - 33.8 °F 93% 29.68 in 7.0 mi Calm Calm - N/A Rain Light Rain
3:53 AM 35.6 °F - 33.8 °F 93% 29.68 in 7.0 mi Calm Calm - N/A Rain Light Rain
4:13 AM 35.6 °F - 33.8 °F 93% 29.68 in 10.0 mi Calm Calm - N/A   Drizzle
4:33 AM 35.6 °F - 33.8 °F 93% 29.67 in 7.0 mi Calm Calm - N/A Rain Light Rain
4:53 AM 35.6 °F - 33.8 °F 93% 29.67 in 7.0 mi Calm Calm - N/A   Light Drizzle
5:13 AM 33.8 °F - 32.0 °F 93% 29.66 in 7.0 mi Calm Calm - N/A   Overcast
5:33 AM 35.6 °F - 33.8 °F 93% 29.66 in 10.0 mi Calm Calm - N/A   Overcast
5:53 AM 35.6 °F - 33.8 °F 93% 29.66 in 10.0 mi Calm Calm - N/A   Overcast
6:13 AM 33.8 °F 30.8 °F 32.0 °F 93% 29.67 in 1.5 mi West 3.5 mph - N/A   Overcast
6:33 AM 33.8 °F - 30.2 °F 87% 29.67 in 0.5 mi Calm Calm - N/A Fog Fog
6:53 AM 33.8 °F - 30.2 °F 87% 29.66 in 0.2 mi Calm Calm - N/A Fog Fog
7:13 AM 33.8 °F - 30.2 °F 87% 29.67 in 0.5 mi Calm Calm - N/A Fog Fog
7:33 AM 33.8 °F - 30.2 °F 87% 29.67 in 0.5 mi Calm Calm - N/A Fog Fog
7:53 AM 33.8 °F - 30.2 °F 87% 29.67 in 0.8 mi Calm Calm - N/A   Overcast
8:13 AM 33.8 °F - 30.2 °F 87% 29.68 in 2.0 mi Calm Calm - N/A   Overcast
9:13 AM 33.8 °F - 32.0 °F 93% 29.68 in 7.0 mi Calm Calm - N/A   Overcast
9:33 AM 33.8 °F 29.6 °F 32.0 °F 93% 29.68 in 4.0 mi West 4.6 mph - N/A   Overcast
9:53 AM 33.8 °F 30.8 °F 33.8 °F 100% 29.69 in 4.0 mi NW 3.5 mph - N/A   Overcast
10:13 AM 33.8 °F 30.8 °F 32.0 °F 93% 29.69 in 4.0 mi NW 3.5 mph - N/A   Overcast
10:33 AM 35.6 °F 31.7 °F 33.8 °F 93% 29.69 in 7.0 mi NW 4.6 mph - N/A   Overcast
10:53 AM 35.6 °F 32.8 °F 33.8 °F 93% 29.69 in 10.0 mi WNW 3.5 mph - N/A   Overcast
11:13 AM 35.6 °F - 33.8 °F 93% 29.69 in 10.0 mi Calm Calm - N/A   Overcast
11:33 AM 35.6 °F - 33.8 °F 93% 29.69 in 10.0 mi Calm Calm - N/A   Overcast
11:53 AM 37.4 °F 33.8 °F 33.8 °F 87% 29.69 in 10.0 mi North 4.6 mph - N/A   Overcast
12:13 PM 37.4 °F - 33.8 °F 87% 29.69 in 10.0 mi Calm Calm - N/A   Overcast
12:33 PM 37.4 °F 33.8 °F 33.8 °F 87% 29.69 in 10.0 mi North 4.6 mph - N/A   Overcast
12:53 PM 37.4 °F - 32.0 °F 81% 29.69 in 10.0 mi Calm Calm - N/A   Overcast
1:13 PM 39.2 °F 35.9 °F 33.8 °F 81% 29.69 in 10.0 mi NNW 4.6 mph - N/A   Mostly Cloudy
1:33 PM 39.2 °F 35.9 °F 32.0 °F 75% 29.69 in 10.0 mi West 4.6 mph - N/A   Mostly Cloudy
1:53 PM 41.0 °F 38.0 °F 33.8 °F 76% 29.69 in 10.0 mi NW 4.6 mph - N/A   Mostly Cloudy
2:13 PM 41.0 °F 38.0 °F 32.0 °F 70% 29.70 in 10.0 mi NW 4.6 mph - N/A   Mostly Cloudy
2:33 PM 39.2 °F 33.6 °F 32.0 °F 75% 29.70 in 10.0 mi North 8.1 mph - N/A   Overcast
2:53 PM 41.0 °F 38.0 °F 30.2 °F 65% 29.70 in 10.0 mi NW 4.6 mph - N/A   Overcast
3:13 PM 42.8 °F 39.3 °F 32.0 °F 66% 29.70 in 10.0 mi NNW 5.8 mph - N/A   Overcast
3:33 PM 41.0 °F 38.0 °F 30.2 °F 65% 29.71 in 10.0 mi NNW 4.6 mph - N/A   Mostly Cloudy
3:53 PM 42.8 °F - 32.0 °F 66% 29.70 in 10.0 mi Calm Calm - N/A   Scattered Clouds
4:13 PM 42.8 °F 41.1 °F 30.2 °F 61% 29.71 in 10.0 mi NW 3.5 mph - N/A   Clear
4:33 PM 41.0 °F - 30.2 °F 65% 29.71 in 10.0 mi Calm Calm - N/A   Clear
4:53 PM 41.0 °F 36.4 °F 30.2 °F 65% 29.71 in 10.0 mi West 6.9 mph - N/A   Clear
5:13 PM 41.0 °F 37.1 °F 30.2 °F 65% 29.71 in 10.0 mi West 5.8 mph - N/A   Clear
5:33 PM 39.2 °F 35.9 °F 30.2 °F 70% 29.72 in 10.0 mi WNW 4.6 mph - N/A   Clear
5:53 PM 39.2 °F 35.9 °F 30.2 °F 70% 29.73 in 10.0 mi WNW 4.6 mph - N/A   Clear
6:13 PM 37.4 °F - 30.2 °F 75% 29.73 in 10.0 mi Calm Calm - N/A   Clear
6:33 PM 35.6 °F - 30.2 °F 81% 29.74 in 10.0 mi Calm Calm - N/A   Clear
6:53 PM 35.6 °F - 30.2 °F 81% 29.74 in 10.0 mi Calm Calm - N/A   Clear
7:13 PM 32.0 °F - 28.4 °F 87% 29.74 in 10.0 mi Calm Calm - N/A   Clear
7:33 PM 30.2 °F - 28.4 °F 93% 29.74 in 10.0 mi Calm Calm - N/A   Clear
7:53 PM 28.4 °F - 26.6 °F 93% 29.74 in 10.0 mi Calm Calm - N/A   Clear
8:13 PM 28.4 °F - 26.6 °F 93% 29.74 in 10.0 mi Calm Calm - N/A   Clear
8:33 PM 28.4 °F - 26.6 °F 93% 29.74 in 2.0 mi Calm Calm - N/A   Clear
8:53 PM 28.4 °F - 26.6 °F 93% 29.74 in 7.0 mi Calm Calm - N/A   Clear
9:13 PM 26.6 °F - 26.6 °F 100% 29.74 in 7.0 mi Calm Calm - N/A   Clear
9:33 PM 26.6 °F - 24.8 °F 93% 29.74 in 10.0 mi Calm Calm - N/A   Clear
9:53 PM 26.6 °F - 24.8 °F 93% 29.74 in 7.0 mi Calm Calm - N/A   Clear
10:13 PM 28.4 °F - 26.6 °F 93% 29.74 in 10.0 mi Calm Calm - N/A   Clear
10:33 PM 26.6 °F - 24.8 °F 93% 29.74 in 10.0 mi Calm Calm - N/A   Clear
10:53 PM 26.6 °F - 24.8 °F 93% 29.74 in 10.0 mi Calm Calm - N/A   Clear
11:13 PM 26.6 °F - 24.8 °F 93% 29.74 in 2.5 mi Calm Calm - N/A   Clear
11:33 PM 24.8 °F - 23.0 °F 93% 29.73 in 10.0 mi Calm Calm - N/A   Clear
11:53 PM 24.8 °F - 23.0 °F 93% 29.73 in 10.0 mi Calm Calm - N/A   Clear